Regional Weather Roundup
Issued by NWS

Home | Current Version | Previous Version | Graphics & Text | Print | Product List | Glossary On
Versions: 1 2 3 4 5 6 7 8 9 10 11 12 13 14 15 16 17 18 19 20 21 22 23 24 25 26 27 28 29 30 31 32 33 34 35 36 37 38 39 40 41 42 43 44 45 46 47 48 49 50
658
ASUS44 KMEG 221510
RWRTN
TENNESSEE HOURLY STATE WEATHER ROUNDUP
NATIONAL WEATHER SERVICE MEMPHIS TN
900 AM CST WED NOV 22 2017

TNZ002-004-019-021-049-052-054-088>092-221600-
WEST TENNESSEE

CITY           SKY/WX    TMP DP  RH WIND       PRES   REMARKS
MEMPHIS INTL   MOSUNNY   37  24  59 NE15      30.34S WCI  28
NWS MEMPHIS      N/A     36 N/A N/A MISG        N/A
JACKSON        SUNNY     36  25  64 NE13      30.35R WCI  27
DYERSBURG      MOSUNNY   36  24  62 N13       30.39R WCI  27
SOMERVILLE     SUNNY     36  25  64 N10       30.32F WCI  28
COVINGTON      SUNNY     36  25  64 NE13G20   30.37S WCI  27
UNION CITY     SUNNY     34  23  64 N14       30.38S WCI  24
BOLIVAR        SUNNY     37  25  60 NW8G16    30.33R WCI  31
PARIS          SUNNY     34  25  69 N14       30.34S WCI  24
HUNTINGDON     SUNNY     36  25  64 VRB7G15   30.34S WCI  30
LEXINGTON      SUNNY     36  25  64 N10G17    30.32R WCI  28
SELMER         SUNNY     36  23  60 N15       30.30R WCI  26
SAVANNAH       SUNNY     37  25  60 N14G22    30.30R WCI  29
$$

TNZ008-025-027-028-033-062-065-066-221600-
NORTH MIDDLE TENNESSEE

CITY           SKY/WX    TMP DP  RH WIND       PRES   REMARKS
NASHVILLE      MOSUNNY   38  26  62 N13       30.31R WCI  30
PORTLAND       SUNNY     34  27  75 N12       30.30S WCI  25
CLARKSVILLE    SUNNY     35  24  64 N15       30.35R WCI  25
SMYRNA         SUNNY     37  27  67 N13       30.31S WCI  29
COOKEVILLE     CLOUDY    37  34  87 N8        30.24R WCI  31
GALLATIN       SUNNY     37  27  65 N9G15     30.33R WCI  31
CROSSVILLE     CLOUDY    38  33  82 N10       30.20R WCI  31
$$

TNZ061-075-076-078-094-096-097-221600-
SOUTH MIDDLE TENNESSEE

CITY           SKY/WX    TMP DP  RH WIND       PRES   REMARKS
FAYETTEVILLE   SUNNY     39  32  75 N14       30.23R WCI  31
TULLAHOMA      CLOUDY    37  30  75 N8        30.23R WCI  31
WINCHESTER     CLOUDY    37  34  87 N9        30.23S WCI  31
MCMINNVILLE    CLOUDY    37  32  81 N12G17    30.24R WCI  30
COLUMBIA       SUNNY     36  25  64 N9G15     30.28R WCI  29
SHELBYVILLE    SUNNY     36  30  80 N15G23    30.27R WCI  26
$$

TNZ017-018-042-046-047-221600-
NORTHEAST TENNESSEE

CITY           SKY/WX    TMP DP  RH WIND       PRES   REMARKS
TRI CITIES     MOSUNNY   49  37  63 N10       30.16R
ELIZABETHTON   SUNNY     48  34  57 N8        30.15R
$$

TNZ012-013-036-069-073-074-221600-
CENTRAL EAST TENNESSEE

CITY           SKY/WX    TMP DP  RH WIND       PRES   REMARKS
KNOXVILLE      NOT AVBL
OAK RIDGE      SUNNY     46  37  71 VRB5      30.22R
DOWNTOWN KNOXV SUNNY     48  37  66 VRB6      30.21R
GATLINBURG     SUNNY     50  36  57 N7        30.19R
MORRISTOWN     SUNNY     46  36  66 VRB6G12   30.18R
JACKSBORO      PTSUNNY   43  32  65 VRB7G14   30.25R
$$

TNZ083-085-099-221600-
SOUTHEAST TENNESSEE

CITY           SKY/WX    TMP DP  RH WIND       PRES   REMARKS
CHATTANOOGA    MOSUNNY   49  36  61 N15       30.19R
DAYTON         SUNNY     46  39  76 N14       30.20R
$$

SKY/WX REPORTED AS FAIR MEANS FEW OR NO CLOUDS BELOW
12 THOUSAND FEET.





USA.gov is the U.S. government's official web portal to all federal, state and local government web resources and services.